TimeCST,TemperatureF,Dew PointF,Humidity,Sea Level PressureIn,VisibilityMPH,Wind Direction,Wind SpeedMPH,Gust SpeedMPH,PrecipitationIn,Events,Conditions,WindDirDegrees,DateUTC
12:13 AM,-16.6,-20.2,84,30.22,10.0,Calm,Calm,-,N/A,,Clear,0,2013-01-01 06:13:00
12:33 AM,-16.6,-20.2,84,30.22,10.0,Calm,Calm,-,N/A,,Clear,0,2013-01-01 06:33:00
12:53 AM,-16.6,-20.2,84,30.22,10.0,Calm,Calm,-,N/A,,Clear,0,2013-01-01 06:53:00
1:13 AM,-16.6,-20.2,84,30.22,10.0,Calm,Calm,-,N/A,,Clear,0,2013-01-01 07:13:00
1:32 AM,-18.4,-22.0,84,30.21,10.0,Calm,Calm,-,N/A,,Clear,0,2013-01-01 07:32:00
1:53 AM,-18.4,-23.8,76,30.21,10.0,Calm,Calm,-,N/A,,Clear,0,2013-01-01 07:53:00
2:12 AM,-18.4,-23.8,76,30.21,10.0,Calm,Calm,-,N/A,,Clear,0,2013-01-01 08:12:00
2:32 AM,-18.4,-23.8,76,30.21,10.0,Calm,Calm,-,N/A,,Clear,0,2013-01-01 08:32:00
2:53 AM,-18.4,-23.8,76,30.21,10.0,Calm,Calm,-,N/A,,Clear,0,2013-01-01 08:53:00
3:12 AM,-18.4,-23.8,76,30.21,10.0,Calm,Calm,-,N/A,,Clear,0,2013-01-01 09:12:00
3:33 AM,-18.4,-23.8,76,30.20,7.0,Calm,Calm,-,N/A,,Clear,0,2013-01-01 09:33:00
3:53 AM,-18.4,-23.8,76,30.20,10.0,Calm,Calm,-,N/A,,Clear,0,2013-01-01 09:53:00
4:13 AM,-20.2,-25.6,76,30.21,7.0,Calm,Calm,-,N/A,,Clear,0,2013-01-01 10:13:00
4:33 AM,-18.4,-25.6,70,30.21,10.0,Calm,Calm,-,N/A,,Clear,0,2013-01-01 10:33:00
4:53 AM,-20.2,-25.6,76,30.20,10.0,Calm,Calm,-,N/A,,Clear,0,2013-01-01 10:53:00
5:13 AM,-20.2,-25.6,76,30.20,10.0,Calm,Calm,-,N/A,,Clear,0,2013-01-01 11:13:00
5:32 AM,-20.2,-25.6,76,30.19,10.0,Calm,Calm,-,N/A,,Clear,0,2013-01-01 11:32:00
5:53 AM,-20.2,-25.6,76,30.19,10.0,Calm,Calm,-,N/A,,Clear,0,2013-01-01 11:53:00
6:13 AM,-20.2,-25.6,76,30.19,10.0,Calm,Calm,-,N/A,,Clear,0,2013-01-01 12:13:00
6:32 AM,-20.2,-25.6,76,30.19,10.0,Calm,Calm,-,N/A,,Clear,0,2013-01-01 12:32:00
6:53 AM,-20.2,-25.6,76,30.18,10.0,Calm,Calm,-,N/A,,Clear,0,2013-01-01 12:53:00
7:12 AM,-20.2,-25.6,76,30.17,10.0,Calm,Calm,-,N/A,,Clear,0,2013-01-01 13:12:00
7:33 AM,-20.2,-25.6,76,30.16,10.0,Calm,Calm,-,N/A,,Clear,0,2013-01-01 13:33:00
7:53 AM,-20.2,-25.6,76,30.16,7.0,Calm,Calm,-,N/A,,Scattered Clouds,0,2013-01-01 13:53:00
8:13 AM,-20.2,-25.6,76,30.15,7.0,Calm,Calm,-,N/A,,Mostly Cloudy,0,2013-01-01 14:13:00
8:32 AM,-18.4,-23.8,76,30.15,5.0,Calm,Calm,-,N/A,Snow,Light Snow,0,2013-01-01 14:32:00
8:53 AM,-14.8,-20.2,77,30.14,4.0,Calm,Calm,-,N/A,Snow,Light Snow,0,2013-01-01 14:53:00
9:12 AM,-11.2,-16.6,77,30.14,2.5,Calm,Calm,-,N/A,Snow,Light Snow,0,2013-01-01 15:12:00
9:33 AM,-9.4,-13.0,84,30.13,1.0,Calm,Calm,-,N/A,Snow,Light Snow,0,2013-01-01 15:33:00
9:53 AM,-5.8,-9.4,84,30.13,3.0,Calm,Calm,-,N/A,Snow,Light Snow,0,2013-01-01 15:53:00
10:13 AM,-4.0,-7.6,85,30.12,4.0,Calm,Calm,-,N/A,Snow,Light Snow,0,2013-01-01 16:13:00
10:33 AM,-2.2,-5.8,85,30.12,5.0,Calm,Calm,-,N/A,Snow,Light Snow,0,2013-01-01 16:33:00
10:51 AM,1.4,-2.2,85,30.11,10.0,Calm,Calm,-,N/A,Snow,Light Snow,0,2013-01-01 16:51:00
11:12 AM,5.0,1.4,85,30.10,10.0,Calm,Calm,-,N/A,,Overcast,0,2013-01-01 17:12:00
11:32 AM,6.8,3.2,85,30.10,10.0,South,3.5,-,N/A,Snow,Light Snow,170,2013-01-01 17:32:00
11:53 AM,8.6,6.8,92,30.09,7.0,SSW,4.6,-,N/A,Snow,Light Snow,200,2013-01-01 17:53:00
12:13 PM,10.4,6.8,85,30.08,7.0,SSW,4.6,-,N/A,,Overcast,200,2013-01-01 18:13:00
12:33 PM,10.4,8.6,92,30.07,7.0,Calm,Calm,-,N/A,Snow,Light Snow,0,2013-01-01 18:33:00
12:53 PM,10.4,8.6,92,30.07,7.0,SW,3.5,-,N/A,Snow,Light Snow,230,2013-01-01 18:53:00
1:13 PM,12.2,10.4,92,30.06,5.0,SW,4.6,-,N/A,Snow,Light Snow,230,2013-01-01 19:13:00
1:33 PM,12.2,10.4,92,30.04,7.0,SW,4.6,-,N/A,Snow,Light Snow,220,2013-01-01 19:33:00
1:52 PM,12.2,10.4,92,30.04,7.0,SW,6.9,-,N/A,Snow,Light Snow,230,2013-01-01 19:52:00
2:12 PM,14.0,10.4,86,30.04,7.0,SSW,3.5,-,N/A,Snow,Light Snow,210,2013-01-01 20:12:00
2:33 PM,14.0,10.4,86,30.04,7.0,SW,4.6,-,N/A,Snow,Light Snow,230,2013-01-01 20:33:00
2:51 PM,14.0,10.4,86,30.04,7.0,SW,4.6,-,N/A,,Overcast,220,2013-01-01 20:51:00
3:12 PM,15.8,10.4,79,30.04,7.0,SSW,4.6,-,N/A,,Overcast,210,2013-01-01 21:12:00
3:33 PM,15.8,12.2,86,30.03,7.0,SSW,5.8,-,N/A,,Overcast,200,2013-01-01 21:33:00
3:53 PM,15.8,12.2,86,30.03,7.0,SW,4.6,-,N/A,,Overcast,220,2013-01-01 21:53:00
4:11 PM,15.8,12.2,86,30.03,7.0,SSW,5.8,-,N/A,,Overcast,210,2013-01-01 22:11:00
4:33 PM,15.8,12.2,86,30.03,5.0,SSW,4.6,-,N/A,,Overcast,210,2013-01-01 22:33:00
4:53 PM,15.8,12.2,86,30.03,5.0,SSW,5.8,-,N/A,,Overcast,210,2013-01-01 22:53:00
5:12 PM,15.8,14.0,93,30.02,5.0,SSW,5.8,-,N/A,,Overcast,200,2013-01-01 23:12:00
5:33 PM,15.8,14.0,93,30.02,5.0,SSW,4.6,-,N/A,,Overcast,200,2013-01-01 23:33:00
5:52 PM,15.8,14.0,93,30.01,5.0,South,3.5,-,N/A,,Overcast,180,2013-01-01 23:52:00
6:13 PM,15.8,14.0,93,30.01,5.0,South,4.6,-,N/A,,Overcast,190,2013-01-02 00:13:00
6:33 PM,15.8,14.0,93,30.00,5.0,South,5.8,-,N/A,,Overcast,190,2013-01-02 00:33:00
6:53 PM,15.8,14.0,93,30.00,7.0,South,3.5,-,N/A,,Overcast,190,2013-01-02 00:53:00
7:12 PM,15.8,12.2,86,29.99,7.0,SSW,5.8,-,N/A,,Overcast,200,2013-01-02 01:12:00
7:32 PM,15.8,14.0,93,29.99,10.0,South,3.5,-,N/A,,Overcast,190,2013-01-02 01:32:00
7:53 PM,15.8,14.0,93,29.98,10.0,South,4.6,-,N/A,,Overcast,190,2013-01-02 01:53:00
8:12 PM,15.8,14.0,93,29.97,10.0,South,3.5,-,N/A,,Overcast,180,2013-01-02 02:12:00
8:33 PM,17.6,14.0,86,29.97,10.0,South,4.6,-,N/A,,Overcast,170,2013-01-02 02:33:00
8:53 PM,17.6,14.0,86,29.96,7.0,South,4.6,-,N/A,,Overcast,170,2013-01-02 02:53:00
9:13 PM,17.6,14.0,86,29.95,10.0,South,5.8,-,N/A,,Overcast,180,2013-01-02 03:13:00
9:32 PM,17.6,14.0,86,29.95,5.0,South,4.6,-,N/A,,Overcast,170,2013-01-02 03:32:00
9:52 PM,17.6,14.0,86,29.94,10.0,South,5.8,-,N/A,,Overcast,170,2013-01-02 03:52:00
10:12 PM,17.6,15.8,93,29.94,10.0,South,5.8,-,N/A,,Overcast,170,2013-01-02 04:12:00
10:32 PM,17.6,15.8,93,29.94,10.0,South,4.6,-,N/A,,Overcast,170,2013-01-02 04:32:00
10:52 PM,17.6,15.8,93,29.94,5.0,South,3.5,-,N/A,,Overcast,170,2013-01-02 04:52:00
11:13 PM,17.6,15.8,93,29.94,7.0,South,3.5,-,N/A,,Overcast,170,2013-01-02 05:13:00
11:33 PM,17.6,15.8,93,29.93,10.0,South,3.5,-,N/A,,Overcast,170,2013-01-02 05:33:00
11:53 PM,17.6,15.8,93,29.93,10.0,South,3.5,-,N/A,,Overcast,170,2013-01-02 05:53:00